Clearfield, PA

6:07 PM EDT on September 19, 2017 (GMT -0400)
Clearfield-Lawrence

Weather History for KFIG - August, 2013

Change the Weather History Date:

Friday, August 2, 2013

  Actual Average (KDUJ) Record (KDUJ)
Temperature  
Mean Temperature 65 °F -  
Max Temperature 77 °F 79 °F 94 °F (1975)
Min Temperature 53 °F 59 °F 45 °F (1976)
Growing Degree Days 15 (Base 50)    
Moisture  
Dew Point 54 °F    
Average Humidity 79    
Maximum Humidity 100    
Minimum Humidity 43    
Precipitation  
Precipitation 0.02 in - - ()
Sea Level Pressure  
Sea Level Pressure 29.95 in    
Wind  
Wind Speed 3 mph (SW)    
Max Wind Speed 18 mph    
Max Gust Speed 22 mph    
Visibility 6 miles    
Events Fog , Rain    
Averages and records for this station are not official NWS values.
T = Trace of Precipitation, MM = Missing Value Source: NWS Daily Summary

Daily Weather History Graph

Daily Weather History Graph

Search for Another Location

Airport or City:

Trip Planner

Search our weather history database for the weather conditions in past years. The results will help you decide how hot, cold, wet, or windy it might be!

Date:

Astronomy

Aug. 02, 2013 Rise Set
Actual Time 6:10 AM EDT 8:28 PM EDT
Civil Twilight 5:39 AM EDT 8:59 PM EDT
Nautical Twilight 5:01 AM EDT 9:37 PM EDT
Astronomical Twilight 4:19 AM EDT 10:18 PM EDT
Moon 2:29 AM EDT (8/2) 5:25 PM EDT (8/2)
Length of Visible Light 15h 19m
Length of Day
14h 17m
Waning Crescent, 16% of the Moon is Illuminated
Aug 2
Waning Crescent
Aug 6
New
Aug 14
First Quarter
Aug 20
Full
Aug 28
Last Quarter

Hourly Weather History & Observations

Time (EDT) Temp. Dew Point Humidity Pressure Visibility Wind Dir Wind Speed Gust Speed Precip Events Conditions
12:54 AM 57.9 °F 55.9 °F 93% 29.93 in 10.0 mi Calm Calm - N/A   Clear
1:54 AM 57.9 °F 55.9 °F 93% 29.91 in 5.0 mi Calm Calm - N/A   Mostly Cloudy
2:34 AM 57.2 °F 55.4 °F 94% 29.93 in 2.5 mi Calm Calm - N/A   Clear
2:54 AM 55.9 °F 55.0 °F 97% 29.91 in 4.0 mi Calm Calm - 0.01 in   Clear
3:03 AM 55.4 °F 53.6 °F 94% 29.93 in 0.8 mi Calm Calm - N/A   Clear
3:08 AM 53.6 °F 53.6 °F 100% 29.93 in 0.2 mi Calm Calm - N/A Fog Fog
3:16 AM 55.4 °F 53.6 °F 94% 29.93 in 1.0 mi Calm Calm - N/A   Mist
3:18 AM 55.4 °F 53.6 °F 94% 29.93 in 2.5 mi Calm Calm - N/A   Partly Cloudy
3:25 AM 55.4 °F 53.6 °F 94% 29.93 in 5.0 mi Calm Calm - N/A   Partly Cloudy
3:31 AM 55.4 °F 53.6 °F 94% 29.94 in 1.2 mi Calm Calm - N/A   Scattered Clouds
3:35 AM 55.4 °F 53.6 °F 94% 29.94 in 0.2 mi Calm Calm - N/A Fog Fog
3:54 AM 55.0 °F 54.0 °F 96% 29.92 in 0.2 mi Calm Calm - N/A Fog Fog
4:21 AM 55.4 °F 53.6 °F 94% 29.94 in 0.2 mi Calm Calm - N/A Fog Fog
4:54 AM 55.0 °F 55.0 °F 100% 29.91 in 0.2 mi Calm Calm - N/A Fog Fog
5:54 AM 55.0 °F 54.0 °F 96% 29.93 in 0.2 mi Calm Calm - N/A Fog Fog
6:54 AM 55.9 °F 55.0 °F 97% 29.95 in 0.2 mi SSW 3.5 mph - N/A Fog Fog
7:54 AM 55.9 °F 55.0 °F 97% 29.98 in 0.2 mi Calm Calm - N/A Fog Fog
8:46 AM 57.2 °F 57.2 °F 100% 29.99 in 1.0 mi SW 4.6 mph - N/A   Mist
8:54 AM 59.0 °F 57.9 °F 96% 29.98 in 2.0 mi SW 4.6 mph - N/A   Overcast
9:04 AM 60.8 °F 59.0 °F 94% 29.99 in 4.0 mi SSW 4.6 mph - N/A   Overcast
9:21 AM 60.8 °F 57.2 °F 88% 29.99 in 9.0 mi SW 4.6 mph - N/A   Scattered Clouds
9:54 AM 64.9 °F 59.0 °F 81% 29.96 in 10.0 mi SW 5.8 mph - N/A   Clear
10:54 AM 68.0 °F 59.0 °F 73% 29.96 in 10.0 mi SSW 3.5 mph - N/A   Overcast
11:32 AM 69.8 °F 57.2 °F 64% 29.97 in 10.0 mi SW 6.9 mph - N/A   Mostly Cloudy
11:54 AM 73.0 °F 55.9 °F 55% 29.95 in 10.0 mi WSW 8.1 mph - N/A   Scattered Clouds
12:54 PM 75.0 °F 54.0 °F 48% 29.96 in 10.0 mi SW 15.0 mph 20.7 mph N/A   Overcast
1:54 PM 73.9 °F 52.0 °F 46% 29.96 in 10.0 mi WSW 13.8 mph 18.4 mph N/A   Scattered Clouds
2:54 PM 77.0 °F 53.1 °F 43% 29.96 in 10.0 mi WSW 10.4 mph 19.6 mph N/A   Scattered Clouds
3:54 PM 71.1 °F 53.1 °F 53% 29.94 in 10.0 mi SSW 15.0 mph 20.7 mph N/A   Clear
4:54 PM 72.0 °F 51.1 °F 48% 29.96 in 10.0 mi WSW 18.4 mph 21.9 mph N/A   Clear
5:54 PM 73.0 °F 52.0 °F 48% 29.95 in 10.0 mi WSW 10.4 mph - N/A   Clear
6:54 PM 72.0 °F 48.9 °F 44% 29.94 in 10.0 mi WSW 11.5 mph 18.4 mph N/A   Clear
7:54 PM 69.1 °F 50.0 °F 51% 29.96 in 10.0 mi WSW 5.8 mph - N/A   Clear
8:54 PM 68.0 °F 52.0 °F 56% 29.97 in 10.0 mi WSW 4.6 mph - N/A   Overcast
9:54 PM 66.0 °F 53.1 °F 63% 29.96 in 10.0 mi Calm Calm - N/A   Overcast
10:54 PM 64.9 °F 53.1 °F 65% 29.95 in 10.0 mi SSW 3.5 mph - 0.00 in   Overcast
11:54 PM 63.0 °F 55.9 °F 78% 29.96 in 8.0 mi SSW 8.1 mph - 0.01 in Rain Rain